Simultaneous Nadir Overpasses (SNOs) Predictions

Prediction of SNOs between GOES-15 and NPP Satellite Orbit:

Table of predicted SNOs for the next 14.0 days since TLE Epoch: 3/7/2015
Index Date Time (GOES-15) GOES-15 Lat,Lon NPP Lat,Lon Distance(km) Time Diff (sec)
1 03/07/2015 22:30:11 0.02,-135.31 0.23,-134.47 96.34 80
2 03/10/2015 10:30:31 -0.02,-135.29 -0.02,-135.20 9.69 80
3 03/12/2015 22:33:40 0.02,-135.21 -0.18,-135.97 86.78 80
4 03/13/2015 22:17:34 0.02,-135.19 0.85,-131.44 427.19 80
5 03/15/2015 10:39:21 -0.01,-135.17 0.32,-136.71 175.30 80
6 03/16/2015 10:17:54 -0.01,-135.14 -0.65,-132.17 337.83 80
7 03/17/2015 22:39:48 0.01,-135.07 -0.55,-137.47 274.32 80
8 03/18/2015 22:23:43 0.01,-135.04 0.48,-132.94 238.90 80
9 03/20/2015 10:45:29
